Regional Weather Roundup
Issued by NWS Sioux Falls, SD

Home | Current Version | Previous Version | Text Only | Print | Product List | Glossary Off
Versions: 1 2 3 4 5 6 7 8 9 10 11 12 13 14 15 16 17 18 19 20 21 22 23 24 25 26 27 28 29 30 31 32 33 34 35 36 37 38 39 40 41 42 43 44 45 46 47 48 49 50

000
ASUS43 KFSD 311502
RWRFSD

WEATHER ROUNDUP FOR SE SOUTH DAKOTA/SW MINNESOTA/NW IOWA
NATIONAL WEATHER SERVICE SIOUX FALLS SD
1000 AM CDT THU JUL 31 2014

NOTE: "FAIR" INDICATES FEW OR NO CLOUDS BELOW 12,000 FEET WITH NO
SIGNIFICANT WEATHER AND OR OBSTRUCTIONS TO VISIBILITY.


SDZ038>040-050-052>070-311600-
SOUTHEAST SOUTH DAKOTA

CITY           SKY/WX    TMP DP  RH WIND       PRES   REMARKS
CHAMBERLAIN    SUNNY     75  58  55 NE6       30.07F
HURON          PTSUNNY   67  59  75 VRB3      30.08S
MADISON        FAIR      70  59  68 CALM      30.10S
MITCHELL       MOSUNNY   72  65  78 NE9       30.08S
SIOUX FALLS    PTSUNNY   72  59  63 CALM      30.09S
WINNER         FAIR      71  57  61 N5        30.08S
YANKTON        PTSUNNY   63  61  94 NE5       30.09S
$$

MNZ071-072-080-081-089-090-097-098-311600-
SOUTHWEST MINNESOTA

CITY           SKY/WX    TMP DP  RH WIND       PRES   REMARKS
FAIRMONT       SUNNY     75  55  50 CALM      30.08S
JACKSON        SUNNY     72  59  64 W3        30.10S
LUVERNE        MOSUNNY   70  59  68 CALM      30.11R
MARSHALL       SUNNY     75  54  46 CALM      30.07S
MONTEVIDEO     MOSUNNY   75  63  64 N3        30.08S
PIPESTONE      PTSUNNY   70  57  64 SW3       30.10S
REDWOOD FALLS  SUNNY     71  58  63 N6        30.07S
TRACY          MOSUNNY   75  56  51 CALM      30.08F
WINDOM         SUNNY     73  61  64 W3        30.09S
WORTHINGTON    CLOUDY    70  57  64 W3        30.12R
$$

IAZ001>003-012>014-020>022-031-032-NEZ013-014-SDZ071-311600-
NORTHWEST IOWA

CITY           SKY/WX    TMP DP  RH WIND       PRES   REMARKS
CHEROKEE       SUNNY     69  61  73 SW3       30.11S
DENISON        SUNNY     70  63  78 VRB3      30.10S
ESTHERVILLE    SUNNY     72  58  61 W7        30.09F
LE MARS        MOSUNNY   70  61  73 VRB6      30.10S
ORANGE CITY    SUNNY     72  61  68 W6        30.10S
SHELDON        SUNNY     72  57  60 VRB5      30.09S
SIOUX CITY     CLOUDY    67  60  78 CALM      30.10S
SPENCER        SUNNY     71  59  65 W5        30.10S
STORM LAKE     SUNNY     72  61  68 W7        30.12S
$$

ABBREVIATIONS USED IN REMARKS
   TC - TEMPERATURE IN CELSIUS
  WCI - WIND CHILL INDEX
   HX - HEAT INDEX
  VSB - VISIBILITY



USA.gov is the U.S. government's official web portal to all federal, state and local government web resources and services.